Flag for Germany Weather past 2 weeks in Marburg, Hesse, Germany

Now
68 °F

Overcast.


Feels Like: 68 °F
Forecast: 47 / 68 °F
Wind: 2 mph from East

Location: Giessen

Current Time: May 23, 2015 at 2:26:45 PM

Latest Report: May 23, 2015 at 2:00 PM


Visibility: 9 mi

Pressure: 30.10 "Hg

Humidity: 51%

Dew point: 49 °F

Location of MarburgLocation

Historic Weather in Marburg — Graph

°F

Marburg temperature yesterday

Maximum temperature yesterday: 67 °F (at 4:00 PM)
Minimum temperature yesterday: 41 °F (at 6:00 AM)
Average temperature yesterday: 55 °F

Past Weeks' High & Low Weather Summary

 TemperatureHumidityPressure
High81 °F (May 12, 3:00 PM)96% (May 13, 5:00 AM)30.36 "Hg (May 13, 5:00 AM)
Low37 °F (May 21, 6:00 AM)31% (May 18, 6:00 PM)29.67 "Hg (May 18, 8:00 PM)
Average56 °F62%30.08 "Hg
* Reported May 8 1:00 PM — May 23 1:00 PM, Marburg, Weather by CustomWeather, © 2015

Note: Actual official high and low records may vary slightly from our data, if they occured in-between our weather recording intervals... More about our weather records

Advertising

Marburg weather history for previous 24 hours

 ConditionsComfort  
Time TempWeatherWind HumidityBarometerVisibility
1:00 PM
Sat, May 23
65 °FOvercast.2 mph56%30.12 "Hg11 mi
12:00 PM63 °FOvercast.3 mph54%30.14 "Hg14 mi
11:00 AM63 °FOvercast.2 mph53%30.14 "Hg16 mi
10:00 AM60 °FOvercast.1 mph69%30.15 "Hg15 mi
9:00 AM58 °FOvercast.No wind70%30.16 "Hg18 mi
8:00 AM55 °FOvercast.1 mph78%30.16 "Hg14 mi
7:00 AM54 °FOvercast.2 mph77%30.15 "Hg19 mi
5:00 AM54 °FOvercast.2 mph75%30.16 "Hg14 mi
4:00 AM55 °FOvercast.1 mph70%30.16 "Hg16 mi
3:00 AM54 °FOvercast.No wind72%30.17 "Hg15 mi
2:00 AM55 °FOvercast.1 mph73%30.18 "Hg16 mi
1:00 AM56 °FOvercast.2 mph70%30.19 "Hg17 mi
12:00 AM54 °FOvercast.1 mph77%30.20 "Hg17 mi
11:00 PM
Fri, May 22
56 °FOvercast.1 mph73%30.19 "Hg19 mi
10:00 PM57 °FOvercast.2 mph68%30.19 "Hg19 mi
9:00 PM58 °FOvercast.2 mph62%30.18 "Hg19 mi
8:00 PM65 °FSunny.1 mph40%30.17 "Hg25 mi
7:00 PM66 °FScattered clouds.2 mph38%30.17 "Hg25 mi
6:00 PM66 °FOvercast.2 mph40%30.19 "Hg25 mi
5:00 PM66 °FPartly sunny.1 mph35%30.20 "Hg19 mi
4:00 PM67 °FPassing clouds.2 mph34%30.22 "Hg17 mi
3:00 PM64 °FOvercast.3 mph36%30.24 "Hg18 mi
2:00 PM65 °FPassing clouds.2 mph35%30.26 "Hg16 mi
Weather by CustomWeather, © 2015

See weather overviewHow to use our weather pages